Change the Weather History Date:

Saturday, August 23, 2014

  Actual Average (KEWR) Record (KEWR)
Temperature  
Mean Temperature 72 °F 75 °F  
Max Temperature 75 °F 83 °F 93 °F (1989)
Min Temperature 70 °F 67 °F 55 °F (1952)
Degree Days  
Heating Degree Days 0 0  
Month to date heating degree days 0  
Since 1 June heating degree days 17  
Since 1 July heating degree days 0  
Cooling Degree Days 8 10  
Month to date cooling degree days 261  
Year to date cooling degree days 959  
Since 1 June cooling degree days 883  
Growing Degree Days 22 (Base 50)    
Moisture  
Dew Point 63 °F    
Average Humidity 69    
Maximum Humidity 78    
Minimum Humidity 62    
Precipitation  
Precipitation 0.00 in 0.11 in 1.88 in (1970)
Month to date precipitation 2.92  
Year to date precipitation 30.59  
Snow  
Snow 0.00 in 0.00 in 0.00 in (2002)
Month to date snowfall 0.0  
Since 1 July snowfall 0.0  
Snow Depth -    
Sea Level Pressure  
Sea Level Pressure 30.10 in    
Wind  
Wind Speed 6 mph (ESE)    
Max Wind Speed 12 mph    
Max Gust Speed -    
Visibility 10 miles    
Events Rain    
T = Trace of Precipitation, MM = Missing Value Source: NWS Daily Summary

Daily Weather History Graph

Daily Weather History Graph

Search for Another Location

Airport or City:

Trip Planner

Search our weather history database for the weather conditions in past years. The results will help you decide how hot, cold, wet, or windy it might be!

Date:

Astronomy

Aug. 23, 2014 Rise Set
Actual Time 6:15 AM EDT 7:43 PM EDT
Civil Twilight 5:46 AM EDT 8:11 PM EDT
Nautical Twilight 5:12 AM EDT 8:46 PM EDT
Astronomical Twilight 4:35 AM EDT 9:22 PM EDT
Moon 4:28 AM EDT (8/23) 6:26 PM EDT (8/23)
Length of Visible Light 14h 25m
Length of Day
13h 27m
Waning Crescent, 3% of the Moon is Illuminated
Aug 23
Waning Crescent
Aug 25
New
Sep 2
First Quarter
Sep 8
Full
Sep 15
Last Quarter

Hourly Weather History & Observations

Time (EDT) Temp. Dew Point Humidity Pressure Visibility Wind Dir Wind Speed Gust Speed Precip Events Conditions
12:15 AM 74.7 °F 62.6 °F 66% 30.07 in 10.0 mi East 8.1 mph - N/A   Scattered Clouds
12:35 AM 74.5 °F 62.6 °F 66% 30.07 in 10.0 mi ESE 4.6 mph - N/A   Mostly Cloudy
12:55 AM 74.3 °F 62.6 °F 67% 30.07 in 10.0 mi SE 3.5 mph - N/A   Mostly Cloudy
1:15 AM 73.9 °F 62.2 °F 67% 30.06 in 10.0 mi ESE 5.8 mph - N/A   Overcast
1:35 AM 73.4 °F 62.6 °F 69% 30.06 in 10.0 mi ESE 6.9 mph - N/A   Scattered Clouds
1:55 AM 73.0 °F 63.0 °F 71% 30.06 in 10.0 mi ESE 5.8 mph - N/A   Scattered Clouds
2:15 AM 72.9 °F 61.0 °F 66% 30.06 in 10.0 mi East 6.9 mph - N/A   Mostly Cloudy
2:35 AM 72.7 °F 61.2 °F 67% 30.06 in 10.0 mi ESE 6.9 mph - N/A   Mostly Cloudy
2:55 AM 72.5 °F 61.0 °F 67% 30.05 in 10.0 mi East 6.9 mph - N/A   Scattered Clouds
3:15 AM 72.1 °F 60.4 °F 67% 30.05 in 10.0 mi ESE 6.9 mph - N/A   Scattered Clouds
3:35 AM 72.0 °F 60.8 °F 68% 30.05 in 10.0 mi ESE 6.9 mph - N/A   Clear
3:55 AM 71.6 °F 60.8 °F 69% 30.05 in 10.0 mi ESE 8.1 mph - N/A   Clear
4:15 AM 71.6 °F 61.3 °F 70% 30.06 in 10.0 mi East 8.1 mph - N/A   Clear
4:35 AM 71.8 °F 62.1 °F 71% 30.05 in 10.0 mi East 10.4 mph - N/A   Clear
5:15 AM 71.2 °F 62.8 °F 75% 30.06 in 10.0 mi ESE 6.9 mph - N/A   Clear
5:35 AM 71.1 °F 63.5 °F 77% 30.06 in 10.0 mi ESE 5.8 mph - N/A   Clear
5:55 AM 71.1 °F 63.5 °F 77% 30.06 in 10.0 mi East 8.1 mph - N/A   Clear
6:15 AM 70.9 °F 63.9 °F 78% 30.07 in 10.0 mi East 5.8 mph - N/A   Clear
6:35 AM 71.1 °F 63.5 °F 77% 30.07 in 10.0 mi East 8.1 mph - N/A   Clear
7:15 AM 71.1 °F 63.5 °F 77% 30.09 in 10.0 mi SE 4.6 mph - N/A   Clear
7:35 AM 71.8 °F 63.7 °F 76% 30.09 in 10.0 mi East 5.8 mph - N/A   Clear
7:55 AM 73.4 °F 63.7 °F 71% 30.09 in 10.0 mi ESE 10.4 mph - N/A   Clear
8:15 AM 73.8 °F 63.7 °F 71% 30.09 in 10.0 mi East 9.2 mph - N/A   Clear
8:35 AM 74.3 °F 63.5 °F 69% 30.09 in 10.0 mi ESE 8.1 mph - N/A   Scattered Clouds
8:55 AM 75.0 °F 63.3 °F 67% 30.09 in 10.0 mi ESE 11.5 mph - N/A   Scattered Clouds
9:15 AM 74.7 °F 62.4 °F 66% 30.09 in 10.0 mi ESE 9.2 mph - N/A   Mostly Cloudy
9:35 AM 75.2 °F 61.3 °F 62% 30.09 in 10.0 mi East 11.5 mph - N/A   Mostly Cloudy
9:55 AM 75.0 °F 61.5 °F 63% 30.10 in 10.0 mi ESE 8.1 mph - N/A   Scattered Clouds
10:15 AM 74.8 °F 61.3 °F 63% 30.10 in 10.0 mi ESE 9.2 mph - N/A   Overcast
10:35 AM 75.2 °F 61.7 °F 63% 30.11 in 10.0 mi East 6.9 mph - N/A   Overcast
11:15 AM 75.0 °F 62.1 °F 64% 30.11 in 10.0 mi East 6.9 mph - N/A   Overcast
11:35 AM 74.8 °F 61.9 °F 64% 30.11 in 10.0 mi ESE 6.9 mph - N/A   Overcast
11:55 AM 75.2 °F 61.5 °F 62% 30.10 in 10.0 mi SE 6.9 mph - N/A   Overcast
12:15 PM 75.7 °F 62.1 °F 62% 30.10 in 10.0 mi East 8.1 mph - N/A   Overcast
12:35 PM 75.7 °F 62.6 °F 64% 30.10 in 10.0 mi East 10.4 mph - N/A   Overcast
12:55 PM 75.2 °F 62.6 °F 65% 30.10 in 10.0 mi East 10.4 mph - N/A   Overcast
1:15 PM 75.4 °F 62.4 °F 64% 30.11 in 10.0 mi East 8.1 mph - N/A   Overcast
1:35 PM 75.2 °F 62.8 °F 65% 30.11 in 10.0 mi ESE 6.9 mph - N/A   Overcast
1:55 PM 75.4 °F 62.4 °F 64% 30.10 in 10.0 mi SE 5.8 mph - N/A   Light Drizzle
2:15 PM 75.2 °F 61.9 °F 63% 30.10 in 10.0 mi SE 4.6 mph - N/A Rain Light Rain
2:35 PM 74.3 °F 66.0 °F 75% 30.11 in 10.0 mi SSE 5.8 mph - N/A   Light Drizzle
2:55 PM 73.8 °F 65.8 °F 76% 30.11 in 10.0 mi SSE 6.9 mph - N/A   Overcast
3:15 PM 74.3 °F 64.8 °F 72% 30.11 in 10.0 mi SSE 9.2 mph - N/A   Overcast
3:35 PM 74.3 °F 63.7 °F 69% 30.11 in 10.0 mi SSE 6.9 mph - N/A   Overcast
3:55 PM 74.3 °F 62.8 °F 67% 30.12 in 10.0 mi SSE 8.1 mph - N/A   Overcast
4:15 PM 73.8 °F 63.1 °F 69% 30.12 in 10.0 mi SSE 5.8 mph - N/A   Overcast
4:35 PM 73.0 °F 63.5 °F 72% 30.12 in 10.0 mi SSE 5.8 mph - N/A   Overcast
5:15 PM 72.7 °F 63.1 °F 72% 30.12 in 10.0 mi SSE 5.8 mph - N/A   Overcast
5:35 PM 72.9 °F 63.1 °F 71% 30.12 in 10.0 mi SE 6.9 mph - N/A   Overcast
5:55 PM 71.6 °F 63.0 °F 74% 30.12 in 10.0 mi South 6.9 mph - N/A   Overcast
6:15 PM 71.6 °F 62.6 °F 73% 30.12 in 10.0 mi Calm Calm - N/A   Overcast
6:35 PM 72.3 °F 62.1 °F 70% 30.11 in 10.0 mi Calm Calm - N/A   Overcast
6:55 PM 72.5 °F 61.3 °F 68% 30.11 in 10.0 mi Calm Calm - N/A   Mostly Cloudy
7:15 PM 72.5 °F 61.7 °F 69% 30.11 in 10.0 mi Calm Calm - N/A   Scattered Clouds
7:35 PM 72.5 °F 61.7 °F 69% 30.11 in 10.0 mi Calm Calm - N/A   Scattered Clouds
7:55 PM 72.1 °F 62.2 °F 71% 30.12 in 10.0 mi Calm Calm - N/A   Mostly Cloudy
8:15 PM 72.5 °F 62.2 °F 70% 30.12 in 10.0 mi Calm Calm - N/A   Overcast
8:35 PM 72.3 °F 62.6 °F 71% 30.12 in 10.0 mi NNW 3.5 mph - N/A   Overcast
8:55 PM 72.3 °F 62.6 °F 71% 30.12 in 10.0 mi Calm Calm - N/A   Overcast
9:15 PM 72.5 °F 62.2 °F 70% 30.12 in 10.0 mi Calm Calm - N/A   Overcast
9:35 PM 72.7 °F 62.6 °F 71% 30.12 in 10.0 mi Calm Calm - N/A   Overcast
9:55 PM 72.5 °F 63.0 °F 72% 30.12 in 10.0 mi Calm Calm - N/A   Overcast
10:15 PM 73.0 °F 62.6 °F 70% 30.13 in 10.0 mi Calm Calm - N/A   Overcast
10:35 PM 72.7 °F 62.8 °F 71% 30.13 in 10.0 mi Calm Calm - N/A   Overcast
11:15 PM 72.3 °F 63.7 °F 74% 30.14 in 10.0 mi Calm Calm - N/A   Overcast
11:35 PM 72.1 °F 63.5 °F 74% 30.14 in 10.0 mi Calm Calm - N/A   Overcast
11:55 PM 72.1 °F 64.0 °F 76% 30.14 in 10.0 mi NNW 3.5 mph - N/A   Overcast